Theta_e
341 341 343 342 342 341 339 341 336 335 337 338 337 334 334 336 334 334 335 337 340 340 340 340 341 339 338 335 336 337 336 337 334 335 338 338 338 340 341 339 339 339 339 338 337 337 336 335 334 334 336 336 336 334 334 333 332 330 330 329 329 329 329 329 329 329 329 328 328 328 327 327 328 327 327 327 327 327 327 327 326 326 326 326 325
342 342 342 339 340 339 339 338 341 341 337 338 339 337 335 336 337 337 332 333 335 337 339 338 336 338 334 335 339 338 337 342 336 336 337 337 337 339 341 340 339 339 338 337 336 336 335 335 335 336 336 336 336 335 335 335 334 333 333 331 330 329 328 329 329 329 328 328 328 328 327 327 327 327 327 327 327 327 326 327 326 326 326 325 325
342 340 341 340 338 337 336 337 337 342 340 340 346 339 338 337 342 337 333 330 336 338 337 336 337 338 335 337 335 337 337 338 338 336 337 336 337 337 340 342 341 341 339 338 337 337 336 336 336 336 337 338 337 337 337 335 335 335 334 332 330 330 330 330 330 329 329 328 327 327 327 327 327 327 326 326 327 327 326 327 326 326 326 325 325
342 340 339 338 337 337 338 338 339 341 342 342 343 343 342 339 336 338 342 340 338 338 339 338 335 333 332 336 337 335 337 335 338 337 337 336 336 335 335 338 340 340 340 339 338 338 337 337 337 338 338 338 338 338 337 336 335 335 335 334 331 330 330 330 330 330 330 329 328 328 327 327 327 327 326 326 326 327 326 326 326 326 326 325 325
341 339 340 337 336 339 341 340 343 345 346 344 345 345 344 344 341 343 342 336 333 336 339 335 336 336 335 336 336 336 338 337 336 336 336 336 334 334 333 335 338 341 340 339 340 338 338 338 338 338 339 338 338 338 338 337 337 336 336 335 333 331 330 330 331 331 330 330 329 328 328 327 327 327 326 326 326 326 326 326 326 325 326 326 325
341 338 339 340 340 338 337 340 342 343 344 347 344 340 345 343 342 343 339 337 337 336 336 333 336 339 336 336 333 335 337 336 336 336 336 335 337 335 334 334 334 335 338 340 339 338 338 338 338 338 338 338 338 338 338 338 337 338 337 335 335 333 331 331 331 331 331 331 331 329 328 327 327 327 326 326 326 326 326 326 325 326 326 325 325
343 340 339 340 337 338 340 343 344 344 342 346 347 343 344 341 345 338 334 336 338 340 336 334 334 334 333 332 334 335 335 336 335 335 336 335 335 335 335 334 336 335 336 337 338 338 338 338 338 338 338 338 338 338 338 338 338 338 337 336 335 335 333 331 331 331 331 331 331 330 329 328 327 327 327 326 326 327 326 326 325 325 325 325 325
343 342 344 339 338 339 341 345 344 343 345 346 344 342 340 339 340 340 334 333 335 338 338 335 334 330 336 334 333 332 333 335 336 334 336 335 334 334 334 334 336 335 338 335 336 337 337 337 337 338 338 338 338 338 338 338 338 337 337 337 336 335 335 334 332 332 332 331 331 331 331 330 329 328 327 326 326 327 327 327 326 325 325 325 325
339 341 342 340 340 338 339 341 344 344 345 343 343 343 337 338 338 340 337 335 335 334 332 332 331 332 332 334 334 333 333 336 337 334 336 334 335 335 335 335 336 339 337 337 336 335 337 337 336 336 336 336 338 338 337 337 338 339 339 337 338 337 336 336 334 333 332 332 332 331 331 331 330 329 328 328 327 327 327 327 327 326 326 325 325
338 339 335 335 339 341 340 340 341 345 341 340 340 340 339 338 336 339 338 334 334 332 330 331 333 332 333 331 333 335 334 334 336 335 334 334 334 335 336 337 337 337 336 337 335 335 334 335 335 334 335 336 337 338 339 338 337 337 338 337 337 337 337 336 335 334 334 333 333 332 331 331 331 331 329 328 328 327 327 328 328 327 326 326 325
338 337 336 333 337 341 341 341 342 341 339 339 338 334 337 337 337 335 338 337 335 330 330 332 332 331 332 332 335 334 334 335 336 334 334 335 335 336 338 337 335 336 335 336 336 335 333 333 332 328 331 336 337 338 339 338 337 337 337 336 336 336 335 335 335 336 334 333 334 333 332 331 331 332 331 330 330 329 329 328 328 328 327 327 326
336 336 334 333 341 340 339 340 342 339 337 337 335 334 333 333 334 336 334 335 336 332 333 331 331 331 331 332 333 334 333 333 333 334 335 333 334 334 334 333 334 334 335 335 335 336 335 335 336 329 331 335 337 337 337 337 337 337 337 337 337 337 336 335 336 335 334 335 334 333 333 332 332 332 331 331 331 330 330 329 329 329 328 328 327
338 338 337 339 341 342 342 341 340 340 339 338 335 334 334 334 334 335 334 333 332 332 333 332 329 327 329 330 330 333 333 333 332 332 333 334 333 331 334 333 334 334 334 335 335 335 336 335 334 332 332 333 333 334 336 336 336 337 337 337 338 338 337 336 336 336 335 334 334 333 333 332 332 331 332 332 332 331 331 331 330 330 329 328 328
336 337 340 341 339 339 340 339 338 336 334 336 334 333 334 333 335 332 336 333 329 332 332 331 326 324 323 323 325 329 331 331 331 332 332 332 332 331 331 333 335 332 335 334 333 334 334 334 332 333 334 335 334 332 333 333 334 336 336 336 337 338 338 336 336 336 335 334 334 333 333 333 332 333 333 332 333 333 332 331 331 331 330 330 330
336 337 339 340 339 339 338 337 336 336 334 333 332 332 333 332 333 331 330 332 330 331 330 333 326 327 325 322 319 318 323 327 330 330 330 332 333 330 331 332 332 332 333 332 331 329 330 330 332 332 333 332 332 332 332 334 335 336 336 335 335 338 338 337 337 336 335 335 334 334 333 333 333 332 333 332 332 332 331 331 331 331 331 331 330
336 337 338 339 339 338 338 337 335 337 336 333 333 329 331 332 333 333 331 327 327 328 332 334 330 325 319 320 319 318 314 318 323 328 332 331 331 329 332 331 332 331 331 327 324 327 327 329 331 331 333 332 331 331 331 331 333 335 335 335 334 335 337 336 336 336 336 334 334 334 333 332 331 330 330 328 328 328 329 329 329 329 329 330 330
339 338 338 337 337 338 337 337 338 339 337 336 334 332 330 330 332 333 331 330 327 330 331 333 333 334 327 320 317 315 315 319 322 324 328 328 330 331 330 329 329 327 324 322 324 326 327 328 330 331 331 332 331 331 331 330 329 331 330 334 334 334 334 334 335 335 334 332 333 333 332 331 330 329 327 326 325 325 325 326 327 327 329 330 330
338 339 338 337 337 338 338 336 337 339 338 339 336 333 331 331 331 332 331 334 330 328 326 330 334 334 333 332 329 318 318 321 320 314 327 329 326 327 327 329 327 323 321 321 323 325 327 328 329 328 329 329 329 326 324 324 326 323 323 325 330 331 329 331 332 332 332 332 332 332 331 329 328 327 326 324 324 323 323 323 323 324 326 327 328
337 336 337 337 338 338 339 338 337 337 338 339 336 332 332 330 332 333 332 333 333 327 326 326 331 331 333 334 332 330 328 321 317 318 315 321 328 325 324 325 324 321 320 321 323 325 325 326 326 325 327 327 325 323 320 320 323 322 324 322 322 323 323 325 329 332 333 332 332 330 329 327 326 325 324 324 323 323 322 322 322 322 322 322 324
337 336 337 337 337 339 339 339 339 338 336 336 336 334 334 333 334 335 334 332 330 328 328 328 326 325 331 331 331 331 331 330 323 320 317 315 318 323 324 323 320 321 321 320 321 322 324 324 323 323 324 326 326 323 322 320 319 318 318 320 320 320 320 319 319 324 327 328 330 329 329 327 326 324 324 323 323 323 322 322 321 321 321 321 321
338 338 337 337 338 339 338 339 338 337 334 334 336 335 334 335 335 335 332 333 332 333 331 329 329 327 328 327 329 328 329 329 327 327 319 316 315 317 317 320 318 320 321 320 320 321 322 323 322 323 324 324 323 321 319 318 317 316 318 319 320 319 319 317 314 313 317 324 326 327 328 327 326 325 324 324 323 322 322 322 321 320 320 319 319
339 339 338 337 338 338 339 338 336 337 337 335 336 335 335 335 335 335 333 331 331 333 331 330 331 331 331 328 326 324 325 326 325 322 322 324 316 316 316 314 312 316 321 319 320 319 315 316 319 321 322 321 319 318 318 317 316 316 316 318 318 318 317 317 314 314 317 322 326 328 329 328 328 328 326 326 326 325 323 322 322 322 321 321 319
337 340 341 340 339 340 338 338 338 340 341 335 335 335 335 334 332 334 335 333 332 331 329 329 330 331 330 328 327 325 323 322 322 323 322 319 318 316 316 315 313 313 317 320 316 316 315 320 315 316 317 316 315 315 315 315 318 318 317 317 317 319 316 314 312 313 317 319 321 322 322 323 324 323 323 323 324 325 326 326 325 323 321 321 320
337 339 337 337 341 340 341 342 338 341 340 337 334 336 336 334 332 333 335 334 332 330 329 328 329 330 331 330 328 328 327 326 326 324 322 320 321 315 315 314 313 313 315 319 316 314 313 312 313 314 312 312 313 314 314 313 315 318 315 316 315 316 316 313 310 310 310 313 317 319 320 321 320 320 320 319 320 321 321 322 322 322 323 321 320
335 334 337 339 339 339 340 338 340 341 340 337 335 333 338 336 332 334 334 332 331 331 331 330 331 330 329 331 330 329 327 329 327 326 325 325 325 316 316 315 309 309 311 313 312 312 313 312 312 311 310 310 312 311 312 313 313 316 315 314 314 314 314 316 314 310 308 309 313 316 319 319 319 319 318 318 317 317 317 315 313 311 312 315 320
334 335 336 336 337 338 337 337 338 338 338 338 338 336 334 336 335 332 332 333 332 331 330 330 331 331 331 330 330 329 327 327 328 328 327 325 322 319 316 312 309 306 308 309 310 308 309 311 311 310 309 309 310 311 311 312 313 316 314 310 311 312 311 312 315 313 311 311 312 313 316 316 316 315 315 315 314 314 313 311 310 309 308 309 310
334 336 335 336 336 336 338 337 337 338 336 336 337 335 334 332 333 333 330 332 331 330 330 329 330 332 331 332 331 328 327 328 328 329 328 325 326 323 317 306 307 305 304 307 307 308 306 308 310 309 310 310 311 311 311 311 314 316 314 310 307 309 309 310 313 312 311 309 308 308 308 310 311 313 313 312 312 312 312 311 311 309 309 309 311
335 336 337 337 335 335 335 335 337 337 340 338 334 333 336 333 332 333 330 333 331 329 330 330 329 330 331 331 330 329 328 328 329 330 326 327 328 327 326 310 306 302 306 303 303 303 308 306 308 312 312 311 311 310 313 312 312 315 314 308 306 306 309 310 312 313 311 308 306 305 305 305 307 308 308 310 311 311 311 312 311 311 310 311 311
335 338 337 338 336 336 333 333 336 337 335 338 334 333 334 333 334 334 331 331 330 329 331 329 329 329 328 329 329 330 329 329 329 332 331 329 328 327 322 315 311 306 303 300 305 301 305 307 305 309 313 312 311 311 309 309 312 313 311 309 308 306 308 309 308 308 308 308 307 306 305 305 307 308 311 312 311 310 309 309 308 309 310 311 311
334 336 337 336 336 334 336 332 335 336 335 333 333 333 336 334 333 331 331 330 329 329 329 330 327 328 328 328 329 329 329 330 331 331 330 328 328 326 321 320 318 309 306 303 303 305 305 307 308 308 311 311 310 310 309 307 314 313 310 310 309 307 307 307 307 305 305 306 306 305 305 305 307 309 310 310 309 307 307 306 306 307 310 310 310
333 334 334 334 334 335 334 332 333 334 334 334 333 332 333 333 335 331 329 329 329 327 327 328 329 329 328 329 330 330 330 330 331 331 330 329 327 325 322 322 319 319 310 309 302 308 308 307 307 310 311 311 310 309 308 308 312 313 311 310 310 309 307 306 306 305 305 306 304 304 305 305 306 307 309 311 310 308 308 309 307 306 309 308 307
333 332 332 331 332 331 333 331 332 332 332 332 333 331 332 333 333 332 332 332 331 327 326 327 328 331 331 330 330 329 330 330 330 330 329 328 327 325 322 321 319 320 313 310 305 307 310 311 307 309 312 312 311 309 308 307 310 313 313 311 311 309 304 304 304 304 305 304 304 304 309 309 306 307 308 310 311 311 310 310 306 307 309 307 306
331 334 332 330 330 330 328 330 328 331 331 332 334 333 331 332 333 333 331 330 329 330 329 327 329 331 330 330 329 330 330 328 327 328 328 326 325 325 323 323 321 317 315 311 307 308 312 319 308 308 312 312 310 310 308 306 307 309 311 313 310 305 304 304 302 304 303 303 303 303 305 305 305 308 308 308 309 309 309 306 306 308 305 305 304
329 327 329 334 332 332 328 326 331 328 329 330 332 333 329 330 331 333 332 330 328 329 328 328 330 331 331 329 328 329 330 329 328 327 326 323 323 321 319 319 316 318 318 312 309 308 308 313 310 309 310 312 308 311 309 307 307 309 308 312 310 307 306 307 303 302 303 303 302 302 304 305 303 305 306 304 305 305 306 304 304 305 304 302 302
332 330 328 331 330 329 328 328 326 328 329 329 332 332 331 329 328 329 331 330 328 326 326 327 329 330 329 330 328 328 331 328 327 326 324 322 321 319 317 315 312 314 313 314 310 310 310 311 315 308 308 309 309 309 311 310 310 310 308 310 310 309 309 309 308 306 302 302 302 301 302 304 303 303 304 304 304 303 304 303 303 303 302 301 300
328 331 326 325 329 329 327 326 326 328 328 329 329 327 327 328 327 327 328 327 327 326 326 325 327 328 328 327 328 330 329 327 326 324 323 322 321 319 316 316 313 313 317 317 313 312 311 310 310 309 309 308 310 311 312 312 310 309 308 308 312 311 311 311 311 309 305 302 302 301 302 303 302 302 303 303 303 302 303 302 302 301 301 300 301
327 327 328 327 328 326 329 325 324 326 327 329 328 327 328 330 328 326 326 326 327 326 326 326 328 327 326 328 327 327 325 327 325 325 321 320 320 318 315 313 312 314 321 317 315 315 312 311 312 313 311 311 310 310 311 311 310 310 310 309 309 311 311 311 311 313 308 304 302 302 301 302 302 302 302 302 302 302 302 301 301 301 301 300 301
326 328 326 325 323 321 324 322 323 323 324 325 324 324 327 329 328 329 327 326 326 325 325 325 324 326 324 325 327 327 326 327 327 326 325 320 320 321 314 315 313 312 319 317 317 317 313 313 312 311 313 309 309 310 311 311 310 309 309 310 310 310 310 310 311 310 308 304 303 302 301 301 301 302 303 302 302 301 301 301 301 301 300 300 300
327 329 328 328 330 321 323 327 322 320 318 317 319 324 328 328 326 327 326 327 326 328 325 327 322 323 324 325 325 326 327 327 328 326 326 326 325 321 318 321 314 313 315 315 313 314 316 316 311 311 313 313 312 309 311 312 312 311 309 309 309 311 311 312 309 307 306 304 303 301 300 300 302 302 302 301 301 301 301 300 300 300 299 299 298
326 326 326 327 328 326 324 324 321 319 315 312 311 313 318 323 327 325 324 326 324 323 325 323 324 324 325 324 324 327 328 328 328 328 326 324 325 322 322 323 321 316 316 317 316 316 315 314 313 313 314 314 313 315 313 312 309 309 311 311 308 308 311 313 310 305 305 304 302 302 301 301 301 302 301 301 301 301 301 301 301 301 300 298 297
327 323 326 325 327 323 323 322 319 317 314 310 305 303 310 316 322 327 326 324 325 324 322 322 322 324 322 318 317 316 316 312 307 308 308 313 322 321 319 321 322 324 322 320 317 315 316 316 314 315 315 314 313 313 309 309 310 311 315 313 311 313 314 314 312 307 306 303 303 301 301 300 301 301 301 301 301 302 301 301 301 302 300 297 297
323 323 323 326 322 322 321 318 316 314 310 306 299 296 298 308 320 323 327 325 326 324 324 324 322 325 319 316 316 314 311 309 305 301 300 303 308 313 313 315 316 319 319 319 317 317 317 314 314 314 312 311 311 313 313 314 314 315 313 316 314 313 313 311 312 312 307 306 305 302 303 303 303 302 302 301 302 302 300 300 300 300 299 297 297
323 322 323 321 321 321 319 316 313 309 304 298 294 293 294 296 312 320 325 325 325 325 323 322 322 323 321 317 316 315 314 313 306 300 300 298 297 299 300 305 312 316 314 314 314 315 315 316 315 314 312 311 313 315 314 315 315 313 312 312 313 312 310 308 306 312 315 310 308 307 306 306 306 304 303 302 303 302 301 300 300 300 299 297 298
323 324 323 321 319 318 316 313 311 307 302 295 291 293 293 293 297 313 322 324 326 324 321 323 321 321 320 320 320 322 323 321 317 312 305 299 298 297 297 297 298 300 306 315 313 312 314 311 312 314 314 312 313 314 313 313 313 314 313 312 311 310 309 308 308 307 314 318 314 311 309 308 308 306 304 304 304 303 302 301 300 300 298 298 298
325 323 321 319 316 315 313 309 306 303 300 293 292 292 292 292 292 303 320 323 324 323 322 322 319 321 323 323 321 322 318 321 320 326 319 312 299 297 299 301 298 297 298 301 305 315 316 314 312 313 315 316 316 315 319 318 318 313 313 312 311 311 311 309 309 309 311 316 314 311 309 309 307 306 306 307 306 305 303 301 300 299 299 298 298
320 319 318 316 314 312 310 306 302 300 297 293 291 292 292 292 291 296 321 324 322 322 322 322 324 323 323 321 321 321 315 309 306 310 322 322 320 319 320 319 318 316 300 297 296 298 306 315 314 311 315 317 316 317 319 322 319 316 315 313 314 313 313 312 314 314 316 321 312 310 309 309 309 307 305 308 311 305 305 302 300 299 299 298 298
316 315 314 313 312 310 307 305 302 299 297 292 291 291 291 292 292 299 321 325 325 323 322 324 323 324 323 325 323 319 310 304 299 299 308 317 321 322 320 321 321 323 322 320 317 313 311 312 313 314 315 318 317 318 321 324 323 320 319 317 316 316 317 316 316 317 317 318 315 312 307 310 313 311 309 309 312 306 306 301 299 299 298 297 297
315 314 313 312 311 309 307 305 301 298 297 291 291 291 291 291 296 314 323 323 322 322 324 324 324 324 323 323 321 311 305 300 294 293 297 310 320 320 320 320 320 320 321 311 304 307 317 320 320 319 319 313 306 311 309 309 314 320 323 321 319 317 315 311 311 312 313 315 315 312 309 310 314 311 312 312 311 306 303 300 299 299 298 297 297
309 310 312 313 312 309 306 303 301 299 297 293 291 291 291 291 298 311 316 321 320 322 322 323 320 315 316 320 317 308 301 297 292 291 294 302 313 314 315 316 319 320 321 323 312 307 304 303 302 301 300 298 295 295 296 295 304 306 313 315 315 316 312 310 310 310 312 313 313 315 311 309 312 312 310 312 311 308 301 299 298 298 298 297 297
306 307 307 306 307 308 308 305 303 300 298 294 291 291 291 291 296 307 311 315 319 318 320 320 311 306 303 306 310 303 298 294 290 291 293 301 305 306 306 305 309 312 314 310 314 313 306 306 306 303 300 300 300 298 297 297 296 299 311 311 314 314 312 312 311 311 312 312 313 315 310 310 310 309 309 310 311 310 303 300 298 297 297 296 296
305 305 305 305 305 306 306 307 307 303 299 296 292 291 291 291 297 307 309 306 306 307 308 309 310 304 299 296 296 296 295 291 289 290 291 298 301 302 302 303 303 305 307 303 303 303 304 305 307 312 313 310 311 312 313 303 300 301 309 312 314 313 311 311 311 310 309 310 314 316 309 308 309 310 310 307 306 309 307 301 299 297 296 296 295
Wind_Speed
5 4 3 2 1 0 2 2 5 5 5 5 4 5 6 5 5 5 4 2 4 2 2 2 2 1 1 3 2 7 4 2 6 9 8 6 5 5 8 8 9 10 10 10 10 10 11 11 11 12 12 12 11 10 10 9 9 9 9 9 9 9 9 10 10 10 10 11 11 10 11 10 11 12 12 12 12 13 13 13 13 14 14 14 14
4 3 3 3 1 1 2 4 2 3 4 3 2 5 5 3 4 3 4 3 5 3 3 2 2 2 1 4 3 7 7 1 5 8 8 7 5 5 8 8 6 6 10 10 10 11 11 11 11 10 10 9 10 8 9 11 10 10 9 9 8 9 9 9 9 9 9 9 9 10 10 10 10 11 11 12 12 12 13 13 13 14 14 14 14
4 3 3 3 3 3 5 5 5 2 3 3 3 4 4 4 2 3 4 4 6 4 3 2 1 3 1 3 5 3 5 3 5 7 8 7 6 5 5 7 8 10 9 10 10 11 11 10 9 8 8 8 8 8 7 8 9 10 10 9 8 8 8 8 8 9 9 8 8 9 9 10 10 10 10 11 11 11 12 13 12 13 13 13 14
4 4 3 3 4 5 4 3 2 3 2 1 1 1 2 3 5 3 1 8 6 5 3 3 2 1 4 6 4 5 2 5 5 7 7 7 6 5 4 6 10 10 8 8 10 10 9 8 7 7 7 6 6 6 7 7 6 9 10 10 8 8 7 7 8 8 8 9 8 8 9 8 9 9 10 10 10 10 10 11 12 12 12 13 13
4 5 3 5 5 2 0 2 2 1 0 1 1 2 2 2 2 3 4 5 6 5 3 3 0 1 3 6 6 2 6 2 5 6 5 5 6 5 5 5 6 9 10 8 8 8 7 7 6 6 5 5 5 5 5 5 6 7 8 8 8 7 7 6 7 8 9 9 9 8 8 8 8 9 9 9 9 9 9 10 11 11 12 12 13
2 3 5 3 3 2 4 2 2 2 2 1 2 3 1 1 1 1 6 3 2 2 6 1 2 3 7 5 9 3 2 2 5 6 5 6 4 4 4 4 5 4 5 8 8 8 7 6 5 5 4 5 5 5 5 5 5 7 7 8 8 7 6 6 7 7 9 9 9 9 8 8 8 8 8 8 8 9 9 9 9 10 11 11 12
3 5 4 4 4 5 2 1 2 2 2 1 2 3 1 2 2 5 4 4 2 2 3 5 3 8 7 7 7 6 4 6 3 4 6 6 5 4 4 4 4 3 4 4 6 8 7 6 6 6 6 6 6 6 5 5 5 6 7 7 7 7 6 6 6 7 8 8 8 8 8 8 8 7 7 8 8 9 9 9 9 9 9 9 10
3 4 2 3 4 4 2 1 1 2 1 2 2 1 3 3 3 4 5 3 4 0 4 3 7 6 6 5 4 7 3 1 2 5 4 4 4 5 4 4 3 2 4 4 4 4 7 7 7 8 7 8 8 8 6 5 5 5 6 7 6 5 6 6 6 6 7 7 6 7 7 8 8 8 7 7 8 9 9 9 8 8 8 8 8
2 3 1 2 3 4 3 2 1 1 2 1 1 2 2 2 3 4 4 2 3 6 3 4 6 8 5 3 2 5 4 1 4 5 4 5 3 4 4 3 3 5 2 3 4 3 6 8 7 7 6 6 7 8 7 7 6 4 5 6 6 7 6 5 5 5 6 6 7 6 6 7 8 8 7 6 7 8 7 8 9 8 8 7 7
1 3 3 4 4 2 4 3 3 2 2 1 3 3 3 1 3 4 2 3 3 5 6 1 6 5 5 4 2 6 3 2 2 4 4 4 3 2 3 4 4 3 4 2 3 4 3 4 7 5 5 4 6 7 8 8 7 6 5 6 5 5 5 5 5 5 5 7 6 6 5 6 7 7 6 6 5 6 7 8 8 7 7 6 7
2 3 2 2 8 2 2 3 2 3 3 0 4 1 1 2 4 3 0 3 5 8 5 3 5 4 5 2 4 5 2 2 4 4 3 3 4 3 2 4 3 2 3 4 1 3 4 3 3 3 2 6 7 8 9 9 7 7 8 7 6 6 6 5 5 5 6 5 6 7 5 4 5 5 5 4 4 4 5 5 6 6 6 5 6
4 4 5 9 5 3 3 4 3 3 4 2 4 2 2 2 4 2 4 3 7 6 5 6 5 5 4 5 4 4 4 3 3 3 3 3 3 3 2 2 2 1 2 3 2 2 3 2 2 4 3 4 7 9 10 9 9 11 10 8 9 8 8 7 7 7 6 6 6 7 7 4 3 3 3 2 5 3 4 4 4 5 5 4 4
5 5 7 6 2 0 1 2 3 2 3 3 6 3 3 2 2 1 4 5 5 5 5 6 7 6 5 4 5 3 3 3 2 2 3 4 3 2 1 1 1 3 3 3 3 2 1 3 2 4 4 4 6 11 12 11 11 12 12 12 10 10 11 10 11 10 10 10 8 7 6 4 5 4 5 8 7 5 4 3 2 2 3 1 2
5 5 5 4 3 2 2 2 3 3 3 3 6 3 2 2 3 3 2 2 3 5 5 6 3 6 6 3 3 3 2 2 2 1 1 2 3 2 1 0 1 3 3 4 3 4 4 3 3 3 4 3 1 2 6 6 7 11 12 12 13 14 13 14 14 13 13 12 12 11 10 9 9 9 10 10 12 12 11 9 7 5 2 0 0
7 6 4 4 4 3 3 2 2 4 3 4 6 5 4 4 5 4 4 1 2 2 4 2 4 5 6 6 4 3 0 1 1 1 2 2 1 4 2 0 2 2 3 4 4 3 3 6 5 3 3 3 5 6 6 6 9 12 10 12 15 16 17 17 17 17 17 17 17 17 16 16 16 16 16 15 15 15 15 15 16 15 12 10 5
7 7 5 5 4 4 3 3 3 2 4 4 7 7 4 3 3 4 6 5 4 3 4 3 2 7 5 1 5 4 4 1 2 1 1 1 6 2 1 2 2 4 5 4 3 5 5 4 7 5 3 4 5 5 5 5 10 11 12 11 13 15 15 16 16 17 17 18 18 19 17 16 16 16 16 15 14 14 15 15 15 15 14 13 10
4 5 5 5 5 4 3 3 2 3 3 4 7 7 5 3 3 4 6 5 5 3 2 0 2 4 1 4 3 2 2 4 3 1 1 2 4 2 4 5 9 9 3 7 6 5 4 4 6 7 4 5 6 5 5 5 5 5 8 11 12 12 13 15 16 17 16 16 17 17 16 16 15 15 15 14 15 15 15 15 15 16 16 16 17
2 2 4 4 4 3 3 3 3 2 2 2 6 7 8 4 6 4 5 3 4 4 3 1 0 2 3 2 0 1 6 6 5 3 1 2 7 5 4 7 5 3 8 7 7 6 5 4 4 6 7 5 3 7 6 7 5 5 4 6 10 10 11 13 14 15 16 16 15 16 16 15 15 15 15 15 15 15 16 15 15 15 16 17 19
3 4 3 4 3 4 4 3 3 5 4 4 6 8 8 9 7 6 5 4 4 5 5 5 2 2 0 2 0 2 3 6 3 5 4 0 4 10 9 3 1 5 6 7 7 6 5 5 4 5 7 7 7 7 7 7 8 7 8 11 11 10 9 9 13 14 15 15 15 15 15 15 15 15 15 15 15 16 16 16 16 16 16 17 17
4 5 4 5 4 3 3 3 2 2 5 5 5 7 7 7 6 6 5 6 1 4 6 6 6 2 0 1 1 1 4 3 5 4 5 7 4 2 4 2 4 5 6 6 5 4 6 5 5 7 7 8 7 6 5 5 4 5 6 11 11 11 10 10 10 11 13 14 14 15 15 15 16 15 15 15 15 16 15 16 16 16 16 17 17
4 5 5 5 4 4 4 3 3 3 3 3 5 5 7 7 6 5 5 7 7 5 5 6 5 4 4 1 2 3 3 4 4 3 4 6 5 5 3 4 5 4 6 6 4 4 3 3 5 6 6 7 8 8 6 5 5 4 6 11 10 10 10 11 11 11 11 14 15 15 15 16 16 15 15 15 15 15 15 16 15 16 16 16 16
2 3 5 7 6 4 3 4 4 3 2 3 6 3 6 5 4 4 6 5 4 3 6 6 4 4 3 3 2 2 3 2 2 3 4 2 5 6 5 5 3 2 2 4 3 3 5 7 7 7 6 7 7 7 6 5 5 4 6 11 10 10 11 11 11 11 11 12 14 15 16 16 16 16 15 16 16 16 15 15 15 15 15 15 15
3 2 2 3 4 3 3 3 3 2 1 6 3 6 6 7 6 3 4 6 5 4 4 5 3 4 5 4 3 3 2 2 3 2 2 2 2 5 6 5 5 4 1 3 4 3 3 3 6 7 7 8 8 7 6 5 6 6 9 10 10 7 11 11 11 12 12 12 12 13 15 15 15 15 14 15 15 15 15 15 15 14 14 14 14
4 2 3 4 1 2 2 1 2 1 1 4 6 3 4 7 6 5 5 5 5 4 4 4 3 2 4 4 4 3 4 5 3 4 5 3 2 4 5 6 6 3 4 3 4 4 4 4 5 7 9 8 7 6 6 6 6 10 7 8 11 11 10 10 11 10 10 10 10 11 14 15 15 15 15 15 15 15 15 15 14 14 14 13 13
3 4 3 3 4 2 3 3 0 1 1 6 5 5 2 6 7 5 4 5 6 6 6 5 5 4 4 3 5 4 5 3 5 4 2 2 3 4 5 7 5 5 3 3 2 4 5 4 6 8 9 8 7 7 6 6 4 7 8 6 10 10 11 10 10 10 10 11 11 11 12 13 14 14 14 14 14 14 14 13 11 10 10 11 12
5 3 3 4 3 3 5 2 1 1 1 1 1 4 5 3 7 7 6 2 4 5 6 6 5 5 4 4 4 5 5 5 4 4 4 4 3 3 3 5 6 6 4 4 3 4 3 5 5 9 8 8 7 7 6 6 6 8 8 6 7 9 10 10 9 8 10 10 10 10 10 11 12 13 13 13 12 11 11 10 9 9 9 9 10
4 3 4 3 4 4 3 5 4 4 3 5 3 3 5 1 3 7 6 4 4 4 4 5 5 5 5 4 5 6 6 4 4 4 5 6 3 3 3 8 5 5 5 4 4 4 4 3 7 7 9 8 7 6 7 6 6 9 9 5 4 8 9 10 10 9 8 9 8 8 9 9 9 9 9 9 9 8 8 8 7 7 7 7 8
3 3 3 3 3 4 4 3 4 4 0 3 7 5 5 4 3 5 7 4 2 5 2 3 2 3 3 3 3 5 6 6 5 5 5 5 3 5 2 6 7 6 5 5 5 5 6 5 5 10 9 8 8 7 8 8 6 10 8 5 5 4 8 9 9 8 7 8 8 8 8 8 8 7 7 7 6 6 6 6 6 6 6 5 6
4 2 2 2 2 3 4 6 3 4 5 1 5 4 5 4 5 5 6 7 2 2 6 4 2 2 2 3 3 4 5 5 5 4 3 3 3 5 4 6 6 6 4 5 3 5 5 6 5 5 8 8 8 7 8 6 8 8 5 5 5 4 6 8 8 9 8 8 8 7 7 7 6 6 6 5 6 5 5 4 4 4 4 4 4
3 2 2 2 1 1 2 6 3 3 4 6 5 5 2 4 4 6 5 8 5 4 4 5 6 3 2 3 3 4 5 4 3 4 4 4 4 4 5 4 5 7 5 5 3 3 4 5 6 6 7 8 8 6 6 7 12 10 7 6 6 5 8 8 8 8 8 8 8 7 7 6 6 5 4 4 4 4 3 3 3 3 2 3 4
4 3 3 2 3 1 3 4 4 3 4 3 4 7 5 3 4 8 9 10 9 5 5 2 3 5 5 6 5 3 4 4 4 3 3 3 4 4 5 5 3 5 7 5 5 3 4 4 5 8 8 10 9 7 7 7 11 11 7 8 7 10 12 8 10 9 9 9 8 8 7 7 6 5 6 4 5 5 4 4 3 3 4 4 3
3 4 3 3 3 3 2 3 3 4 3 4 3 4 5 3 3 6 7 7 9 11 8 5 4 4 6 5 5 4 4 4 3 4 4 4 3 4 6 6 4 4 6 6 6 4 4 4 6 9 10 9 9 8 8 8 10 15 5 9 9 14 8 6 10 10 10 10 10 9 9 8 8 8 7 6 6 6 6 5 5 6 5 5 5
3 2 3 3 3 3 4 3 5 3 4 3 2 2 4 4 3 3 4 4 5 5 8 10 7 4 5 5 4 4 4 4 4 4 4 5 5 7 5 2 3 5 4 5 6 5 2 2 7 7 9 9 8 8 10 8 8 9 8 7 10 10 9 7 8 11 12 12 12 12 12 11 10 9 9 8 7 7 7 6 5 6 5 6 5
4 5 3 2 3 1 3 3 2 3 4 4 3 2 4 5 3 2 4 5 4 4 2 5 7 5 3 3 6 4 4 5 4 6 5 6 6 6 4 4 4 3 1 5 8 6 6 3 5 7 8 9 6 8 9 9 9 7 10 5 8 9 9 8 7 8 15 14 14 14 13 13 12 10 10 9 8 8 7 7 6 6 6 6 6
3 3 4 2 2 3 3 3 3 3 3 5 3 2 3 4 5 4 5 5 5 4 4 4 6 6 4 2 4 3 3 3 4 4 5 7 7 7 5 4 4 3 4 3 7 5 6 4 4 7 7 7 6 9 8 10 10 9 8 7 9 8 8 8 8 8 15 17 16 15 14 13 12 11 11 10 10 9 8 8 8 7 7 7 7
4 3 4 3 2 3 4 4 4 3 4 3 3 4 5 4 3 4 3 4 6 7 6 6 8 5 4 4 4 3 1 4 4 5 5 5 4 3 2 4 6 4 2 5 5 6 4 6 4 5 7 7 6 7 8 10 10 8 7 6 9 9 9 10 10 9 14 21 20 18 16 14 13 12 12 11 10 10 9 10 9 9 9 9 8
4 3 3 3 2 4 3 5 5 4 3 3 3 3 3 2 3 5 3 4 3 4 4 4 9 9 7 5 5 4 1 1 6 3 5 5 5 4 3 5 6 5 1 3 4 6 6 7 6 4 8 7 6 4 7 11 9 8 7 8 8 10 10 9 10 11 15 24 21 19 16 15 14 13 12 11 11 10 10 10 10 10 10 9 9
4 3 3 3 4 5 3 3 6 7 6 4 4 3 3 2 3 1 4 3 3 3 5 4 6 7 8 8 6 4 3 3 2 2 3 5 5 2 5 3 5 5 1 2 1 4 5 5 6 6 3 6 5 6 5 8 11 9 8 9 8 8 8 9 7 4 5 8 8 9 10 11 12 12 11 11 11 12 11 11 11 11 11 10 10
3 2 1 2 1 5 3 1 7 11 10 10 8 4 2 1 4 3 4 3 1 2 2 2 7 5 6 8 7 8 5 3 1 1 4 4 1 3 3 3 5 7 3 2 1 1 1 2 5 5 3 7 6 4 5 4 6 10 9 8 8 7 8 8 4 3 4 7 7 9 10 10 11 10 11 13 13 12 12 12 11 11 11 11 11
3 3 2 2 2 2 5 11 10 9 9 10 8 7 7 5 3 3 5 3 4 4 4 6 5 4 4 5 5 4 3 2 1 0 3 4 2 1 3 4 5 4 4 4 1 0 1 1 1 1 2 2 3 2 3 3 3 5 7 7 8 7 7 6 7 7 3 6 8 6 6 7 8 10 10 11 12 13 13 11 12 12 13 12 12
3 3 3 3 1 5 12 9 10 8 8 7 6 5 6 7 6 1 2 2 3 3 4 5 6 4 8 9 8 7 8 8 10 9 7 7 4 6 6 7 5 3 2 1 1 1 1 1 2 2 1 1 1 2 5 3 2 3 3 1 5 7 6 4 4 8 9 9 6 7 7 9 8 7 7 6 8 11 11 13 10 14 14 13 13
4 3 3 2 4 9 10 10 9 8 7 5 7 8 4 4 3 5 2 1 1 1 2 3 3 1 9 7 8 12 11 11 10 11 12 12 11 8 5 5 6 6 5 4 2 1 1 1 1 1 2 3 4 3 2 3 3 3 3 1 1 2 2 2 2 3 9 9 8 8 8 8 8 7 7 9 7 10 8 8 9 11 13 14 13
4 4 3 3 5 9 9 9 9 8 6 5 10 8 8 10 7 4 2 2 2 1 3 3 3 3 7 6 5 9 9 8 9 11 11 10 10 11 10 9 6 4 4 5 4 4 5 4 3 1 2 4 4 2 3 4 4 4 4 4 3 2 3 3 4 3 4 10 7 7 6 8 9 9 9 9 8 8 9 10 14 16 15 15 14
4 4 8 10 10 8 8 9 9 8 5 10 12 12 12 11 8 5 4 2 2 1 3 3 3 3 5 6 4 4 5 6 4 6 8 9 10 10 9 8 6 4 4 2 1 2 3 3 4 4 4 3 3 1 3 2 3 3 4 5 7 6 6 6 3 4 2 3 4 8 8 8 10 9 8 9 9 9 12 14 17 17 17 16 15
4 7 9 9 10 9 9 10 9 8 6 13 13 13 12 12 11 7 3 5 2 1 3 4 8 7 3 5 4 6 7 12 7 4 2 4 5 7 7 7 9 9 5 3 3 2 1 0 2 3 2 3 4 3 3 3 4 3 2 3 3 4 4 5 6 4 6 4 5 6 6 7 10 9 9 9 9 10 12 15 17 17 18 17 16
9 9 9 9 9 10 9 10 9 7 7 12 14 14 14 13 13 8 4 4 6 5 6 8 6 5 4 6 7 9 8 9 8 9 8 4 3 1 0 0 0 2 6 9 8 5 3 3 2 3 3 2 3 3 4 1 2 2 3 4 3 3 3 4 3 3 2 2 5 3 3 3 8 7 9 8 7 10 10 13 19 19 19 19 18
7 7 7 8 8 9 9 9 8 7 6 13 14 15 15 14 14 7 3 3 3 4 4 3 4 3 4 6 9 9 8 7 7 8 8 5 4 4 4 3 2 1 2 3 2 3 4 4 5 5 6 4 3 3 3 2 1 2 3 4 4 3 4 3 3 3 1 1 1 1 1 2 4 2 4 5 2 6 8 12 19 20 21 21 20
7 8 8 8 8 9 9 9 8 9 7 14 14 15 15 15 14 6 3 1 2 5 4 3 3 7 8 8 9 9 7 7 9 12 10 7 5 5 4 4 4 4 4 5 6 4 2 0 1 2 1 1 3 1 0 2 3 5 6 5 4 4 4 4 6 3 5 4 4 5 3 5 3 3 8 4 2 3 3 5 15 21 21 21 20
8 8 7 6 6 8 9 9 8 8 7 12 14 15 15 16 12 6 6 1 5 3 4 3 8 9 7 7 10 8 8 7 9 14 14 11 6 7 7 7 6 5 5 6 9 10 8 6 6 4 6 6 7 7 7 6 4 1 3 5 6 5 6 7 6 5 7 4 2 6 3 3 5 5 3 5 7 6 8 8 8 16 20 21 19
9 7 8 8 8 8 8 8 7 7 6 10 14 15 15 16 11 7 7 4 4 4 2 5 9 9 12 18 13 9 8 7 10 15 15 10 7 6 7 6 6 6 6 7 7 8 14 13 11 11 11 11 11 12 11 12 10 4 3 8 7 5 8 7 8 7 5 4 6 7 4 8 3 1 3 3 5 6 8 8 10 9 12 12 16
7 6 7 8 7 7 8 8 8 8 7 8 13 14 16 16 12 7 8 8 9 9 8 7 9 8 9 11 15 11 8 7 11 12 13 10 5 4 4 4 4 4 3 7 7 8 9 9 9 9 8 6 5 5 7 13 14 10 8 10 8 7 9 10 8 5 7 7 5 9 7 4 5 7 7 4 7 5 4 8 9 9 8 7 8
Wind_Direction
162 172 156 146 93 43 300 284 163 189 204 251 154 175 210 217 196 214 167 173 142 124 116 88 62 316 181 41 33 268 67 45 107 109 108 109 118 118 117 117 112 113 112 111 108 110 106 100 102 99 87 88 87 86 87 101 92 90 86 86 87 84 80 78 79 77 75 76 77 79 77 76 74 72 71 70 70 70 71 70 67 69 67 64 64
147 153 128 152 94 94 289 276 289 201 164 224 222 174 199 234 221 213 181 177 152 147 138 145 158 200 328 62 12 287 93 352 95 104 106 104 113 119 115 112 123 124 111 109 106 101 102 113 111 101 101 94 100 108 86 84 91 90 93 95 91 85 82 82 83 83 81 80 79 79 81 79 78 75 71 72 70 69 71 70 70 66 66 66 65
137 143 143 164 151 205 217 222 200 183 193 226 222 180 176 211 240 206 214 207 142 136 121 99 359 321 290 140 157 294 97 80 99 105 112 121 123 121 107 101 99 91 97 104 111 113 122 123 116 111 104 100 95 101 111 93 91 89 93 95 96 93 88 88 88 85 86 86 84 82 81 78 78 76 73 74 73 69 68 71 69 67 66 64 61
139 165 186 167 199 220 211 180 183 189 211 195 278 29 272 176 225 223 60 56 67 84 71 114 175 270 231 92 63 348 100 116 88 101 116 129 126 114 119 103 97 96 95 114 115 121 121 117 107 101 92 79 75 93 116 129 112 101 97 98 99 102 102 101 97 92 90 89 89 90 87 86 81 78 78 75 74 72 70 70 69 70 70 68 64
177 171 161 188 216 220 14 239 160 111 41 236 222 197 251 9 351 342 78 107 111 110 99 39 338 212 102 86 85 53 348 340 107 103 105 108 116 132 134 113 105 95 93 98 105 116 114 98 91 84 80 73 77 81 91 108 131 124 110 108 109 111 114 107 105 100 94 91 94 92 91 93 89 83 81 79 79 75 73 69 67 66 66 68 67
196 172 187 192 141 129 229 194 155 143 201 197 141 240 108 339 282 339 48 79 98 119 93 232 209 59 59 72 86 21 33 288 85 94 96 67 38 80 91 110 121 114 102 98 101 100 101 97 92 83 66 63 67 76 101 115 129 140 135 128 127 127 125 118 111 106 101 99 98 99 100 97 90 85 80 81 79 79 75 72 70 66 65 65 67
208 187 194 165 167 194 191 210 118 183 192 134 52 4 338 226 25 82 111 84 42 20 144 157 91 52 30 38 68 92 34 340 91 97 99 114 114 93 88 79 60 96 115 103 98 103 103 96 85 78 63 60 63 60 70 83 112 135 145 146 136 139 143 137 131 120 112 103 99 102 105 102 98 91 83 77 77 76 74 77 75 71 69 66 63
223 183 187 192 190 146 171 103 115 293 54 51 65 59 20 40 52 80 106 120 115 75 32 52 75 84 57 46 75 96 106 226 102 99 93 106 120 114 104 92 99 75 103 106 98 103 109 100 92 81 71 64 61 63 65 75 90 114 131 156 161 153 147 147 145 138 128 120 115 113 107 108 103 96 91 85 84 80 73 73 75 76 73 69 66
323 338 356 289 154 148 187 148 184 184 95 32 347 108 101 55 51 65 107 131 119 101 50 56 73 65 60 72 89 104 121 147 99 108 103 100 107 110 116 123 132 122 101 97 118 105 104 106 95 82 74 61 57 57 59 73 85 106 129 142 170 174 168 160 159 157 144 138 142 134 122 114 112 102 96 92 85 84 80 75 72 71 71 70 71
37 50 96 279 274 182 154 168 183 113 69 67 35 33 79 53 92 48 68 122 103 86 73 359 69 75 94 114 184 101 111 158 116 80 97 98 90 85 88 112 120 114 118 137 133 124 120 110 103 101 74 67 73 63 54 55 73 88 101 116 123 147 167 171 176 178 165 161 156 136 140 125 119 110 108 109 106 94 87 81 75 74 70 69 67
136 123 108 227 244 173 163 177 156 111 111 79 79 58 45 28 32 106 32 65 75 90 148 105 87 102 102 134 86 82 77 37 73 110 94 96 91 76 63 68 85 119 124 123 142 133 140 163 169 101 69 72 72 65 52 47 62 75 75 75 86 89 102 130 153 151 167 167 179 159 153 148 121 120 129 127 112 112 102 95 94 85 74 67 68
176 166 164 222 220 196 184 189 130 122 135 119 108 88 34 130 177 165 111 87 82 127 107 99 103 100 87 71 69 86 77 58 57 82 94 79 86 79 51 78 82 127 131 136 148 160 143 141 91 98 94 69 72 61 52 47 58 80 87 96 102 101 102 107 103 107 123 138 149 151 160 157 129 76 33 66 153 120 96 94 79 81 79 70 69
177 186 190 205 154 220 73 71 103 110 99 126 113 129 140 224 96 8 98 112 105 104 129 145 117 82 71 74 65 50 70 73 54 40 55 60 82 87 58 79 169 157 162 149 154 138 173 136 128 113 114 119 84 78 66 52 59 80 89 95 97 95 95 91 87 92 99 102 113 119 128 139 107 70 72 71 72 82 75 68 98 110 100 129 138
198 207 204 171 167 175 164 143 125 117 123 78 98 68 278 157 110 78 15 96 148 124 155 140 116 133 140 106 68 48 42 46 65 5 42 145 132 102 29 344 135 171 163 164 177 161 148 138 124 115 122 111 101 45 62 57 56 78 87 91 92 89 87 87 88 85 88 95 96 96 97 97 98 88 84 83 78 75 70 66 67 80 110 248 172
198 199 190 177 172 169 166 170 155 136 113 110 115 156 240 193 132 128 107 320 89 85 187 251 129 140 120 120 142 123 123 73 83 141 256 85 98 110 155 87 274 220 174 171 172 139 96 106 113 98 75 90 86 79 70 66 64 60 71 87 91 91 89 86 86 87 88 89 88 87 89 89 87 86 83 81 77 71 67 65 65 65 65 65 73
191 189 175 180 166 179 176 180 173 155 150 135 114 155 233 277 106 143 147 161 169 151 224 260 181 138 147 175 154 128 121 221 154 172 101 94 61 189 87 137 285 219 216 180 120 100 103 96 104 99 86 94 97 86 86 81 73 66 61 67 79 86 87 88 86 83 85 86 88 87 85 84 81 80 78 75 73 72 70 70 69 67 62 59 63
205 178 168 159 175 177 172 178 181 171 161 146 134 149 174 262 215 174 168 188 157 124 149 325 112 39 93 130 119 185 159 145 136 29 101 112 136 203 214 177 205 205 156 93 104 93 104 101 105 118 103 80 96 117 114 95 75 66 66 73 75 77 87 91 91 93 92 89 87 87 86 82 80 78 77 76 75 75 73 72 71 69 65 63 65
170 179 161 162 175 191 178 185 178 154 137 150 121 107 116 208 219 135 193 215 137 122 129 298 53 61 32 67 25 153 143 159 166 146 126 118 142 193 249 229 198 149 130 162 109 100 100 103 109 114 118 119 86 63 56 58 55 45 58 58 76 84 90 93 96 97 96 97 96 94 90 89 86 83 81 80 79 77 77 74 74 71 70 69 71
178 187 169 178 183 197 191 194 189 165 182 137 109 127 149 184 196 175 197 150 141 139 152 165 127 62 357 12 9 259 149 159 152 127 122 98 149 170 189 149 333 150 124 91 122 137 127 125 141 116 108 97 89 85 80 78 74 75 73 76 73 69 67 88 103 103 102 100 97 95 93 91 88 86 84 83 81 80 77 76 73 72 70 70 71
185 185 189 193 189 191 182 191 165 197 183 155 141 143 154 160 178 167 147 101 51 158 157 159 165 150 231 161 301 58 79 60 131 151 135 140 147 130 85 62 49 32 99 112 93 116 142 142 118 118 124 123 118 110 94 82 74 62 67 77 73 69 70 67 68 87 97 97 98 96 96 95 93 90 89 87 86 82 79 75 72 70 70 70 70
203 171 184 193 189 189 190 185 172 219 188 160 113 138 145 142 138 116 136 139 171 196 155 156 154 154 153 136 77 62 82 78 64 74 130 137 134 142 124 44 30 39 70 100 134 166 158 137 124 110 99 97 99 97 94 93 82 68 76 79 77 74 74 73 74 79 89 99 100 100 99 97 95 92 92 90 88 85 82 80 77 73 71 70 69
236 225 176 192 186 188 185 181 197 204 167 117 110 152 121 128 115 126 138 148 151 159 151 142 135 155 146 134 136 112 71 74 73 84 54 41 148 149 137 129 106 21 51 105 143 87 95 112 122 119 111 106 103 102 108 107 106 95 82 85 85 82 78 77 77 77 86 96 100 100 97 96 93 92 89 87 85 83 82 82 81 79 76 75 73
208 209 121 258 173 196 166 181 169 177 194 95 117 144 139 130 139 166 142 148 145 138 135 122 144 150 125 136 132 148 139 132 155 119 112 116 91 147 132 150 125 128 232 193 132 159 146 132 105 108 103 91 85 86 88 90 85 93 95 93 89 74 84 81 79 79 80 82 89 94 98 97 96 93 90 86 83 78 74 71 70 74 79 79 78
180 166 166 184 166 120 179 158 158 127 121 105 138 186 151 137 141 167 149 123 130 140 130 140 163 138 119 123 123 120 96 114 131 121 127 134 172 142 158 139 136 158 180 168 180 155 135 123 111 102 97 98 97 103 102 101 110 109 96 98 96 91 88 86 81 78 77 84 90 94 96 95 93 91 87 85 82 77 75 71 63 56 58 66 76
172 158 200 148 123 129 75 104 310 78 97 121 134 145 174 124 151 152 134 146 151 148 147 168 161 148 141 139 136 137 126 125 129 132 140 154 248 174 177 143 140 136 149 184 181 144 157 135 123 115 108 112 118 113 117 121 122 118 113 95 100 97 98 96 91 86 81 75 72 79 91 92 91 88 83 81 80 78 73 69 62 51 50 45 42
164 166 155 151 146 144 142 129 150 247 155 108 110 129 131 161 138 143 127 146 151 141 146 163 155 148 149 145 167 127 132 150 152 150 166 167 224 225 160 119 123 134 154 196 161 145 149 141 135 119 125 116 119 126 126 126 126 136 115 110 94 99 100 99 97 92 91 85 82 77 77 81 86 87 86 84 80 79 79 74 70 66 64 60 49
150 147 166 153 135 140 141 148 150 179 188 150 119 121 124 19 125 118 135 179 155 122 155 158 151 152 156 161 156 128 141 164 175 184 183 182 202 243 139 132 143 148 172 173 169 156 159 135 130 113 109 121 128 126 125 131 142 134 126 105 103 107 110 111 107 106 103 102 98 94 92 90 88 87 88 88 93 94 95 91 84 83 74 70 64
117 139 140 140 144 137 155 152 146 153 144 136 141 169 137 145 172 138 143 148 147 128 136 160 151 157 143 131 140 151 156 168 198 183 183 177 208 269 164 144 150 165 176 148 183 135 166 129 117 114 125 131 129 131 133 136 138 151 130 119 128 125 123 122 120 116 117 119 119 115 111 105 104 105 103 104 102 103 100 99 96 92 85 76 75
114 120 127 129 166 170 174 138 135 131 127 80 91 142 119 176 153 134 127 114 90 198 143 168 170 161 138 159 172 167 168 187 183 156 160 150 207 254 223 170 170 153 154 158 185 140 162 136 130 134 137 125 128 128 135 150 159 165 139 142 140 143 146 135 135 135 135 140 137 137 133 127 124 123 125 117 117 111 108 104 105 98 98 93 90
133 154 125 117 109 154 99 118 118 122 127 147 153 130 135 97 154 88 106 119 168 228 207 161 180 163 149 188 203 197 177 162 155 157 168 181 210 246 238 225 177 146 165 148 137 151 140 151 132 139 136 124 131 143 143 153 174 180 150 154 153 157 164 159 155 157 156 154 154 151 152 153 148 147 144 141 136 136 137 135 127 138 146 133 110
144 135 147 159 154 126 103 125 139 137 140 116 129 143 139 180 121 126 157 160 157 161 256 212 191 161 181 198 202 175 153 146 161 155 158 184 213 241 260 258 213 144 165 133 130 184 132 174 136 141 139 141 150 159 154 153 182 193 165 160 166 160 165 175 173 175 174 170 167 169 167 169 172 172 174 178 177 186 188 182 196 192 191 157 134
137 161 173 156 154 144 161 123 125 137 140 137 141 137 143 139 145 145 150 158 152 149 170 204 209 194 176 175 187 161 138 139 144 155 157 193 210 227 235 238 198 171 159 129 135 151 151 159 138 145 144 149 157 164 149 166 188 200 166 175 165 157 170 178 190 187 187 185 182 184 186 180 186 187 190 194 199 198 200 199 200 210 188 165 162
141 162 142 158 151 167 148 169 150 145 127 125 123 123 126 127 129 140 131 141 127 134 153 175 183 190 164 175 176 151 159 155 160 170 170 198 219 235 234 241 147 155 151 127 123 121 121 118 140 146 149 150 163 167 159 168 182 201 220 178 159 167 173 181 188 199 197 196 194 193 193 189 189 194 196 199 200 200 202 196 198 197 184 181 177
175 158 167 109 138 211 135 150 88 115 130 119 129 142 125 137 151 157 148 147 141 145 170 162 154 160 163 177 167 168 173 150 163 177 187 201 216 230 228 229 135 174 185 130 135 140 166 158 151 136 146 166 163 182 160 167 184 187 211 170 170 173 180 181 183 197 205 204 202 199 197 194 194 195 195 200 198 204 202 201 196 191 189 185 185
158 147 112 154 187 161 107 97 105 91 93 99 107 121 126 143 159 168 168 165 161 159 165 192 151 146 156 181 141 153 147 163 180 203 191 194 212 211 208 149 138 186 218 144 138 144 156 193 178 148 156 178 174 181 167 167 176 188 200 168 177 185 190 189 188 196 201 206 203 202 200 198 198 199 198 197 201 200 203 198 195 187 184 179 178
139 114 144 172 204 109 104 115 100 104 96 129 162 175 160 157 156 154 168 158 160 173 182 158 134 143 166 162 149 125 189 198 202 199 210 210 238 261 174 126 148 203 186 86 148 137 154 166 248 165 163 170 203 182 166 161 170 186 202 181 182 192 203 197 201 199 197 201 201 199 199 199 200 201 198 199 200 200 199 197 191 185 181 176 172
116 130 179 126 146 109 139 136 134 133 132 136 143 119 120 173 160 145 148 123 140 176 172 160 144 147 129 129 132 119 143 298 212 201 192 200 226 244 191 145 155 190 197 141 160 147 156 180 198 222 167 174 190 209 175 159 171 187 191 205 197 199 205 204 201 209 190 196 195 195 196 197 198 200 199 199 202 201 200 198 192 186 180 176 172
117 184 167 161 159 136 174 140 151 149 151 146 113 68 48 26 97 154 123 130 160 197 171 151 134 135 142 125 120 135 150 230 263 270 265 206 232 234 182 183 159 171 172 113 113 147 176 170 176 219 153 166 180 209 209 166 167 183 198 201 206 210 209 210 201 175 159 154 176 195 199 197 200 198 198 202 203 203 202 200 194 186 181 178 175
158 158 150 139 204 152 172 188 72 59 51 47 35 28 49 42 30 48 94 146 196 113 55 68 111 117 135 145 154 148 167 194 196 311 308 341 93 3 240 162 185 145 169 147 181 199 131 139 194 203 163 180 180 186 226 202 175 179 185 196 211 217 206 196 153 167 138 169 181 181 187 188 187 193 201 204 204 203 202 200 193 187 183 182 177
159 146 123 108 46 111 73 61 65 65 51 49 30 18 22 4 76 33 35 16 56 40 54 55 88 100 83 89 106 140 144 144 172 342 12 8 346 25 346 32 41 120 126 140 148 121 218 212 156 204 196 181 192 173 216 217 225 209 196 180 205 220 230 206 164 153 149 149 167 169 179 191 192 196 199 207 207 205 203 199 196 190 189 184 181
132 115 117 120 206 85 68 69 65 62 56 41 33 4 355 13 20 29 60 10 43 65 43 49 42 48 75 82 91 86 87 76 79 85 72 55 44 42 13 22 27 65 45 60 129 219 303 157 237 245 306 313 292 223 261 273 244 248 283 247 199 197 192 188 170 159 160 167 172 170 187 189 185 193 190 201 213 203 207 198 197 199 193 186 185
113 123 122 112 79 87 81 69 64 57 53 47 12 13 355 4 4 4 87 62 41 41 72 75 91 10 107 111 114 117 113 105 98 90 81 74 66 76 42 44 40 41 24 6 36 7 325 311 244 225 261 241 238 207 194 242 252 294 324 30 309 316 349 330 295 175 172 163 164 184 201 184 190 188 188 207 202 192 200 195 203 194 195 191 187
124 118 121 83 65 77 85 79 67 61 50 20 360 4 24 30 26 15 16 137 134 189 156 191 170 156 121 128 121 122 121 112 104 106 104 95 95 83 73 74 70 65 56 52 29 25 8 347 330 296 219 234 252 232 207 222 214 213 244 278 267 266 262 267 269 308 184 168 177 186 196 184 183 190 199 204 194 186 201 205 201 192 191 192 188
105 101 75 82 86 78 76 77 68 58 53 15 6 11 17 19 28 4 353 345 122 251 159 135 128 147 134 125 132 111 98 120 133 124 108 108 114 121 121 112 92 90 98 99 62 22 40 19 349 333 341 320 307 305 276 264 249 234 232 229 238 238 250 252 246 237 224 164 186 181 209 181 189 197 195 205 195 188 202 203 198 190 188 188 189
81 80 87 75 79 78 73 72 63 48 45 9 7 12 15 9 8 4 351 316 103 312 44 48 62 33 39 111 113 82 58 40 31 14 139 132 118 122 137 147 156 158 163 155 183 162 154 198 275 297 321 349 341 330 10 360 357 325 277 262 243 231 218 225 233 242 273 222 244 243 231 182 189 199 211 207 200 186 206 202 191 187 186 187 187
72 77 81 81 77 76 73 74 68 51 38 4 12 14 14 5 360 353 324 16 48 31 55 44 46 54 46 56 64 67 49 36 17 6 12 41 41 26 19 94 211 148 167 181 190 190 206 189 190 231 272 307 286 293 307 28 31 327 323 288 297 279 252 230 218 220 243 142 206 211 250 215 190 203 219 222 189 181 199 192 188 186 185 185 184
78 77 77 76 73 75 78 75 72 55 31 16 20 17 15 8 353 328 322 357 22 78 71 61 74 79 51 61 70 74 63 51 33 4 10 2 9 19 7 358 318 246 217 215 207 196 195 205 208 229 246 258 277 301 321 347 306 234 228 240 244 247 252 261 297 259 302 109 119 67 224 287 287 303 315 270 206 176 188 188 185 184 185 183 183
85 87 80 80 82 86 84 80 73 54 33 23 23 21 17 9 357 347 306 58 51 61 39 59 55 61 55 73 89 74 61 60 16 24 27 355 17 12 3 341 337 342 353 109 120 95 69 331 308 333 2 133 171 248 320 359 333 331 318 289 277 275 269 265 249 239 214 262 129 131 193 255 206 156 249 269 235 187 190 196 191 185 184 181 181
67 64 67 73 87 93 89 85 79 62 42 22 25 24 21 14 12 0 349 36 77 72 69 12 58 52 36 73 94 92 80 56 24 33 21 24 30 21 8 359 346 337 335 354 28 24 6 345 321 280 254 252 262 267 266 242 236 260 343 310 271 248 254 260 259 248 248 208 213 175 176 275 251 228 203 191 224 195 190 197 189 192 183 182 178
72 65 73 71 62 62 73 83 82 76 58 26 26 25 24 17 14 5 339 354 86 56 65 79 77 60 38 41 54 71 64 47 31 40 26 28 38 22 22 351 347 339 18 5 357 350 349 341 321 293 280 280 276 269 260 254 243 192 220 248 250 266 259 247 255 245 247 197 208 169 171 228 223 268 265 255 220 216 187 188 183 184 180 177 175
78 81 78 79 73 64 60 63 73 76 62 34 27 29 27 22 16 9 24 34 33 23 18 46 81 69 64 49 57 66 72 63 52 46 37 31 40 24 12 337 341 323 36 353 349 344 339 336 326 330 317 295 276 263 264 255 249 229 220 234 241 237 259 255 250 262 274 251 209 166 194 218 207 223 226 251 256 233 155 176 173 165 169 167 174